User: anonymous   Login
Location: LDNL
(36.4545°S, 141.6685°E)
Time: 23:26:42
(UTC+10:00)
Language:

AO-7 - Orbit

View from above orbital plane
View from above orbital plane
View from above satellite
View from above satellite

Ground track
Ground track

The orbit data is extracted from the following two-line orbital elements,

1 07530U 74089B   22137.93610115 -.00000045  00000-0  68409-5 0  9996
2 07530 101.9030 117.7118 0012639  99.8918 323.0557 12.53654822173646
Epoch (UTC): 17 May 2022 22:27:59
Eccentricity: 0.0012639
inclination: 101.9030°
perigee height: 1439 km
apogee height: 1459 km
right ascension of ascending node: 117.7118°
argument of perigee: 99.8918°
revolutions per day: 12.53654822
mean anomaly at epoch: 323.0557°
orbit number at epoch: 17364

The dashed part of the orbit path shows where the satellite is in the earth's shadow,  

DLR